When you browse on this site, cookies collect data to enhance your experience and personalize the content and advertising you see.
Visit our Privacy Policy to learn more. By continuing to use the site, you agree to this use of cookies and data.
  • In Österreich
  • Länderverzeichnis
  • Für 7 Tage
  • Wassertemperatur
  • Wetterkarte
  • News
  • Widgets
  • user-avatar
    Anmelden

    Stündliche Wetter La Peña

    Heute, 26 Januar, Sonntag

    Zeit Temperatur Niederschläge Wind Luftdruck Luftfeuchtigkeit
    00:00 +21°C° 0.1 mm 1 m/S 670 mmHg 95%
    01:00 +20°C° 0 mm 1 m/S 670 mmHg 96%
    02:00 +20°C° 0.1 mm 1 m/S 670 mmHg 96%
    03:00 +20°C° 0.1 mm 1 m/S 669 mmHg 95%
    04:00 +20°C° 0.1 mm 1 m/S 669 mmHg 95%
    05:00 +20°C° 0 mm 1 m/S 670 mmHg 95%
    06:00 +20°C° 0 mm 1 m/S 670 mmHg 94%
    07:00 +20°C° 0 mm 1 m/S 670 mmHg 94%
    08:00 +23°C° 0.1 mm 1 m/S 671 mmHg 87%
    09:00 +25°C° 0.1 mm 1 m/S 672 mmHg 80%
    10:00 +27°C° 0.1 mm 1 m/S 673 mmHg 73%
    11:00 +27°C° 0.3 mm 1 m/S 672 mmHg 74%
    12:00 +27°C° 0.3 mm 1 m/S 671 mmHg 75%
    13:00 +27°C° 0.3 mm 2 m/S 670 mmHg 76%
    14:00 +26°C° 0.6 mm 1 m/S 670 mmHg 79%
    15:00 +26°C° 0.6 mm 1 m/S 669 mmHg 82%
    16:00 +26°C° 0.6 mm 1 m/S 669 mmHg 85%
    17:00 +24°C° 0.5 mm 1 m/S 669 mmHg 89%
    18:00 +21°C° 0.5 mm 0 m/S 669 mmHg 93%
    19:00 +20°C° 0.5 mm 0 m/S 670 mmHg 97%
    20:00 +20°C° 0.3 mm 0 m/S 670 mmHg 97%
    21:00 +19°C° 0.3 mm 0 m/S 671 mmHg 96%
    22:00 +19°C° 0.3 mm 0 m/S 671 mmHg 96%
    23:00 +19°C° 0.2 mm 0 m/S 671 mmHg 96%

    Morgen, 27 Januar, Montag

    Zeit Temperatur Niederschläge Wind Luftdruck Luftfeuchtigkeit
    00:00 +19°C° 0.2 mm 0 m/S 670 mmHg 96%
    01:00 +18°C° 0.2 mm 0 m/S 670 mmHg 96%
    02:00 +18°C° 0.1 mm 0 m/S 670 mmHg 96%
    03:00 +18°C° 0.1 mm 0 m/S 669 mmHg 96%
    04:00 +20°C° 0.1 mm 1 m/S 669 mmHg 96%
    05:00 +18°C° 0 mm 0 m/S 669 mmHg 95%
    06:00 +18°C° 0 mm 0 m/S 670 mmHg 94%
    07:00 +19°C° 0 mm 0 m/S 671 mmHg 93%
    08:00 +22°C° 0.2 mm 1 m/S 671 mmHg 88%
    09:00 +24°C° 0.2 mm 1 m/S 672 mmHg 83%
    10:00 +26°C° 0.2 mm 1 m/S 673 mmHg 77%
    11:00 +27°C° 0.4 mm 1 m/S 672 mmHg 73%
    12:00 +28°C° 0.4 mm 1 m/S 671 mmHg 69%
    13:00 +29°C° 0.4 mm 1 m/S 671 mmHg 64%
    14:00 +28°C° 0.4 mm 1 m/S 670 mmHg 69%
    15:00 +27°C° 0.4 mm 1 m/S 670 mmHg 74%
    16:00 +27°C° 0.4 mm 1 m/S 669 mmHg 78%
    17:00 +25°C° 1.1 mm 1 m/S 669 mmHg 84%
    18:00 +24°C° 1.1 mm 1 m/S 669 mmHg 90%
    19:00 +20°C° 1.1 mm 0 m/S 670 mmHg 95%
    20:00 +20°C° 0.5 mm 0 m/S 670 mmHg 95%
    21:00 +22°C° 0.5 mm 1 m/S 670 mmHg 95%
    22:00 +21°C° 0.5 mm 1 m/S 671 mmHg 95%
    23:00 +21°C° 0.1 mm 1 m/S 670 mmHg 95%

    übermorgen, 28 Januar, Dienstag

    Zeit Temperatur Niederschläge Wind Luftdruck Luftfeuchtigkeit
    00:00 +21°C° 0.1 mm 1 m/S 670 mmHg 95%
    01:00 +20°C° 0.1 mm 1 m/S 670 mmHg 95%
    02:00 +20°C° 0.1 mm 1 m/S 670 mmHg 94%
    03:00 +20°C° 0.1 mm 1 m/S 669 mmHg 94%
    04:00 +20°C° 0.1 mm 1 m/S 669 mmHg 94%
    05:00 +20°C° 0.1 mm 1 m/S 670 mmHg 94%
    06:00 +20°C° 0.1 mm 1 m/S 670 mmHg 93%
    07:00 +20°C° 0.1 mm 1 m/S 671 mmHg 92%
    08:00 +22°C° 0.2 mm 1 m/S 671 mmHg 85%
    09:00 +25°C° 0.2 mm 1 m/S 672 mmHg 78%
    10:00 +27°C° 0.2 mm 1 m/S 672 mmHg 71%
    11:00 +27°C° 0.2 mm 1 m/S 672 mmHg 70%
    12:00 +28°C° 0.2 mm 1 m/S 671 mmHg 68%
    13:00 +28°C° 0.2 mm 1 m/S 670 mmHg 66%
    14:00 +28°C° 0.6 mm 1 m/S 669 mmHg 71%
    15:00 +27°C° 0.6 mm 1 m/S 669 mmHg 76%
    16:00 +26°C° 0.6 mm 1 m/S 668 mmHg 81%
    17:00 +25°C° 0.7 mm 1 m/S 668 mmHg 86%
    18:00 +23°C° 0.7 mm 1 m/S 668 mmHg 91%
    19:00 +20°C° 0.7 mm 0 m/S 669 mmHg 96%
    20:00 +22°C° 0.3 mm 1 m/S 669 mmHg 96%
    21:00 +21°C° 0.3 mm 1 m/S 669 mmHg 96%
    22:00 +21°C° 0.3 mm 1 m/S 670 mmHg 96%
    23:00 +21°C° 0.1 mm 1 m/S 670 mmHg 96%

    29 Januar, Mittwoch

    Zeit Temperatur Niederschläge Wind Luftdruck Luftfeuchtigkeit
    00:00 +20°C° 0.1 mm 1 m/S 669 mmHg 96%
    01:00 +20°C° 0.1 mm 1 m/S 669 mmHg 96%
    02:00 +20°C° 0 mm 1 m/S 669 mmHg 95%
    03:00 +20°C° 0 mm 1 m/S 669 mmHg 95%
    04:00 +20°C° 0 mm 1 m/S 669 mmHg 95%
    05:00 +20°C° 0 mm 1 m/S 669 mmHg 94%
    06:00 +20°C° 0 mm 1 m/S 670 mmHg 93%
    07:00 +20°C° 0 mm 1 m/S 670 mmHg 92%
    08:00 +23°C° 0.1 mm 1 m/S 671 mmHg 84%
    09:00 +25°C° 0.1 mm 1 m/S 671 mmHg 76%
    10:00 +27°C° 0.1 mm 1 m/S 672 mmHg 68%
    11:00 +28°C° 0.2 mm 1 m/S 671 mmHg 66%
    12:00 +28°C° 0.2 mm 1 m/S 671 mmHg 65%
    13:00 +29°C° 0.2 mm 2 m/S 670 mmHg 64%
    14:00 +28°C° 0.4 mm 1 m/S 669 mmHg 68%
    15:00 +27°C° 0.4 mm 1 m/S 669 mmHg 73%
    16:00 +27°C° 0.4 mm 1 m/S 668 mmHg 78%
    17:00 +25°C° 1.2 mm 1 m/S 668 mmHg 84%
    18:00 +24°C° 1.2 mm 1 m/S 668 mmHg 90%
    19:00 +22°C° 1.2 mm 1 m/S 669 mmHg 96%
    20:00 +22°C° 0.3 mm 1 m/S 669 mmHg 96%
    21:00 +22°C° 0.3 mm 1 m/S 669 mmHg 96%
    22:00 +21°C° 0.3 mm 1 m/S 670 mmHg 96%
    23:00 +21°C° 0.1 mm 1 m/S 669 mmHg 96%

    30 Januar, Donnerstag

    Zeit Temperatur Niederschläge Wind Luftdruck Luftfeuchtigkeit
    00:00 +21°C° 0.1 mm 1 m/S 669 mmHg 96%
    01:00 +18°C° 0.1 mm 0 m/S 669 mmHg 96%
    02:00 +20°C° 0.1 mm 1 m/S 669 mmHg 95%
    03:00 +20°C° 0.1 mm 1 m/S 669 mmHg 95%
    04:00 +20°C° 0.1 mm 1 m/S 668 mmHg 95%
    05:00 +20°C° 0 mm 1 m/S 669 mmHg 94%
    06:00 +20°C° 0 mm 1 m/S 670 mmHg 93%
    07:00 +20°C° 0 mm 1 m/S 670 mmHg 92%
    08:00 +22°C° 0.1 mm 1 m/S 671 mmHg 85%
    09:00 +24°C° 0.1 mm 1 m/S 671 mmHg 79%
    10:00 +27°C° 0.1 mm 1 m/S 671 mmHg 72%
    11:00 +27°C° 0.3 mm 1 m/S 671 mmHg 71%
    12:00 +27°C° 0.3 mm 1 m/S 670 mmHg 70%
    13:00 +28°C° 0.3 mm 2 m/S 669 mmHg 70%
    14:00 +27°C° 0.5 mm 1 m/S 669 mmHg 72%
    15:00 +27°C° 0.5 mm 1 m/S 668 mmHg 74%
    16:00 +27°C° 0.5 mm 1 m/S 668 mmHg 76%
    17:00 +25°C° 1.2 mm 1 m/S 668 mmHg 82%
    18:00 +22°C° 1.2 mm 0 m/S 668 mmHg 88%
    19:00 +20°C° 1.2 mm 0 m/S 669 mmHg 94%
    20:00 +20°C° 0.8 mm 0 m/S 669 mmHg 94%
    21:00 +20°C° 0.8 mm 0 m/S 669 mmHg 94%
    22:00 +22°C° 0.8 mm 1 m/S 670 mmHg 93%
    23:00 +21°C° 0.2 mm 1 m/S 669 mmHg 93%

    31 Januar, Freitag

    Zeit Temperatur Niederschläge Wind Luftdruck Luftfeuchtigkeit
    00:00 +21°C° 0.2 mm 1 m/S 669 mmHg 93%
    01:00 +21°C° 0.2 mm 1 m/S 669 mmHg 93%
    02:00 +20°C° 0.2 mm 1 m/S 669 mmHg 93%
    03:00 +20°C° 0.2 mm 1 m/S 668 mmHg 93%
    04:00 +20°C° 0.2 mm 1 m/S 668 mmHg 92%
    05:00 +20°C° 0 mm 1 m/S 669 mmHg 91%
    06:00 +20°C° 0 mm 1 m/S 669 mmHg 90%
    07:00 +20°C° 0 mm 1 m/S 670 mmHg 89%
    08:00 +23°C° 0 mm 1 m/S 670 mmHg 80%
    09:00 +25°C° 0 mm 1 m/S 671 mmHg 71%
    10:00 +28°C° 0 mm 1 m/S 671 mmHg 61%
    11:00 +28°C° 0.1 mm 1 m/S 671 mmHg 61%
    12:00 +29°C° 0.1 mm 1 m/S 670 mmHg 60%
    13:00 +29°C° 0.1 mm 2 m/S 669 mmHg 59%
    14:00 +29°C° 0.4 mm 1 m/S 669 mmHg 63%
    15:00 +28°C° 0.4 mm 1 m/S 668 mmHg 67%
    16:00 +28°C° 0.4 mm 1 m/S 668 mmHg 71%
    17:00 +26°C° 0.7 mm 1 m/S 668 mmHg 78%
    18:00 +24°C° 0.7 mm 1 m/S 668 mmHg 86%
    19:00 +22°C° 0.7 mm 1 m/S 668 mmHg 93%
    20:00 +22°C° 0.5 mm 1 m/S 669 mmHg 92%
    21:00 +21°C° 0.5 mm 1 m/S 669 mmHg 91%
    22:00 +21°C° 0.5 mm 1 m/S 670 mmHg 90%
    23:00 +20°C° 0.1 mm 1 m/S 669 mmHg 90%
    Mehr zeigen